Location: Star Hoppers Observatory
(42.7905°N, 83.6127°W)
Time: 19:13:28
(UTC-05:00)

NOSS 3-1 (A) - Visible Passes

Search period start: 22 February 2017 00:00
Search period end: 04 March 2017 00:00
Orbit: 837 x 1376 km, 63.4° (Epoch: 13 February)

Date Brightness Start Highest point End Pass type
(mag) Time Alt. Az. Time Alt. Az. Time Alt. Az.
22 Feb 5.6 18:45:50 10° NNW 18:49:51 15° NNE 18:54:08 10° NE visible
22 Feb 4.7 20:36:26 10° NNW 20:43:10 36° NE 20:43:24 36° NE visible
22 Feb 5.3 22:27:07 10° NW 22:30:52 33° NW 22:30:52 33° NW visible
23 Feb 5.0 19:51:51 10° NNW 19:57:57 27° NNE 20:00:26 23° ENE visible
23 Feb 4.5 21:42:20 10° NW 21:47:53 54° NNW 21:47:53 54° NNW visible
23 Feb 6.3 23:34:25 10° WNW 23:35:22 13° WNW 23:35:22 13° WNW visible
24 Feb 5.3 19:07:16 10° NNW 19:12:35 21° NNE 19:17:30 12° ENE visible
24 Feb 4.1 20:57:40 10° NNW 21:04:58 60° NE 21:04:58 60° NE visible
24 Feb 5.7 22:48:59 10° NW 22:52:26 26° WNW 22:52:26 26° WNW visible
25 Feb 4.4 20:13:03 10° NNW 20:20:07 43° NE 20:22:06 37° ENE visible
25 Feb 4.8 22:03:55 10° NW 22:09:35 47° WNW 22:09:35 47° WNW visible
26 Feb 4.8 19:28:28 10° NNW 19:34:58 32° NE 19:39:19 20° E visible
26 Feb 4.0 21:19:04 10° NW 21:26:42 80° WSW 21:26:48 80° SW visible
26 Feb 6.2 23:11:53 10° WNW 23:14:17 16° W 23:14:17 16° W visible
27 Feb 5.1 18:43:53 10° NNW 18:49:42 25° NNE 18:55:59 10° E visible
27 Feb 4.0 20:34:19 10° NNW 20:41:54 74° NE 20:44:07 52° ESE visible
27 Feb 5.5 22:26:03 10° NW 22:31:36 28° W 22:31:36 28° W visible
28 Feb 4.2 19:49:41 10° NNW 19:56:59 53° NE 20:01:31 27° ESE visible
28 Feb 4.8 21:40:48 10° NW 21:48:01 43° WSW 21:49:01 42° SW visible
01 Mar 4.6 19:05:05 10° NNW 19:11:56 38° NE 19:19:04 11° ESE visible
01 Mar 4.3 20:55:49 10° NW 21:03:24 64° WSW 21:06:34 39° S visible
01 Mar 6.3 22:49:58 10° W 22:53:17 13° WSW 22:54:05 13° WSW visible
02 Mar 4.0 20:11:01 10° NW 20:18:40 90° NE 20:24:16 24° SE visible
02 Mar 5.9 22:03:20 10° WNW 22:09:00 22° WSW 22:11:48 18° SW visible
03 Mar 4.1 19:26:20 10° NNW 19:33:49 65° NE 19:42:06 10° SE visible
03 Mar 5.4 21:17:47 10° NW 21:24:35 34° WSW 21:29:41 18° SSW visible
